Holesov, Czech Republic

7:32 AM CET on February 28, 2017 (GMT +0100)
Holesov

Weather History for LKHO - January, 2014

Change the Weather History Date:

Monday, January 6, 2014

  Actual Average Record
Temperature  
Mean Temperature 41 °F -  
Max Temperature 46 °F - - ()
Min Temperature 36 °F - - ()
Degree Days  
Heating Degree Days 24    
Moisture  
Dew Point 38 °F    
Average Humidity 87    
Maximum Humidity 96    
Minimum Humidity 64    
Precipitation  
Precipitation 0.02 in - - ()
Sea Level Pressure  
Sea Level Pressure 30.10 in    
Wind  
Wind Speed 4 mph ()    
Max Wind Speed 9 mph    
Max Gust Speed -    
Visibility 8.7 miles    
Events Fog , Rain    
T = Trace of Precipitation, MM = Missing Value Source: Averaged Metar Reports

Daily Weather History Graph

Daily Weather History Graph

Search for Another Location

Airport or City:

Trip Planner

Search our weather history database for the weather conditions in past years. The results will help you decide how hot, cold, wet, or windy it might be!

Date:

Astronomy

Jan. 06, 2014 Rise Set
Actual Time 7:44 AM CET 4:06 PM CET
Civil Twilight 7:07 AM CET 4:44 PM CET
Nautical Twilight 6:26 AM CET 5:24 PM CET
Astronomical Twilight 5:48 AM CET 6:03 PM CET
Moon 10:16 AM CET (1/6) 10:57 PM CET (1/6)
Length of Visible Light 9h 36m
Length of Day
8h 22m
Waxing Crescent, 32% of the Moon is Illuminated
Jan 6
Waxing Crescent
Jan 8
First Quarter
Jan 16
Full
Jan 24
Last Quarter
Jan 30
New

Hourly Weather History & Observations

Time (CET) Temp. Dew Point Humidity Pressure Visibility Wind Dir Wind Speed Gust Speed Precip Events Conditions
12:00 AM 43 °F 40 °F 86% 30.02 in 12 mi NW 2.2 mph - - Rain Rain
1:00 AM 42 °F 40 °F 88% 30.03 in 11 mi NNW 2.2 mph - -   Clear
2:00 AM 42 °F 40 °F 89% 30.06 in 12 mi NNW 4.5 mph - -   Mostly Cloudy
3:00 AM 42 °F 40 °F 88% 30.07 in 12 mi NNE 2.2 mph - -   Scattered Clouds
4:00 AM 42 °F 39 °F 86% 30.07 in 12 mi NNW 4.5 mph - -   Overcast
5:00 AM 42 °F 40 °F 88% 30.08 in 11 mi North 2.2 mph - -   Mostly Cloudy
6:00 AM 41 °F 39 °F 91% 30.09 in 11 mi East 2.2 mph - -   Overcast
7:00 AM 41 °F 39 °F 91% 30.09 in 7 mi West 2.2 mph - -   Partly Cloudy
8:00 AM 38 °F 36 °F 91% 30.11 in 1 mi South 2.2 mph - - Fog Light Fog
9:00 AM 39 °F 37 °F 91% 30.13 in 3 mi SSE 2.2 mph - - Fog Shallow Fog
10:00 AM 40 °F 39 °F 95% 30.13 in 1 mi SE 4.5 mph - - Fog Light Fog
11:00 AM 42 °F 39 °F 83% 30.13 in 1 mi SE 8.9 mph - - Fog Light Fog
12:00 PM 43 °F 40 °F 85% 30.11 in 14 mi SE 6.7 mph - -   Mostly Cloudy
1:00 PM 44 °F 40 °F 81% 30.11 in 19 mi SE 6.7 mph - -   Partly Cloudy
2:00 PM 46 °F 39 °F 70% 30.10 in 19 mi SSE 6.7 mph - -   Scattered Clouds
3:00 PM 46 °F 38 °F 64% 30.10 in 22 mi South 4.5 mph - -   Scattered Clouds
4:00 PM 43 °F 38 °F 76% 30.11 in 22 mi SSE 6.7 mph - -   Scattered Clouds
6:00 PM 38 °F 36 °F 91% 30.12 in 7 mi SE 6.7 mph - -   Partly Cloudy
7:00 PM 36 °F 35 °F 96% 30.12 in 7 mi SE 8.9 mph - -   Partly Cloudy
8:00 PM 36 °F 35 °F 92% 30.14 in 5 mi SE 4.5 mph - -   Mist
9:00 PM 37 °F 36 °F 96% 30.13 in 5 mi SE 8.9 mph - -   Mist
10:00 PM 38 °F 37 °F 94% 30.12 in 6 mi SE 4.5 mph - -   Clear
11:00 PM 41 °F 38 °F 85% 30.10 in 7 mi SE 8.9 mph - -   Clear